[[{"header":{"parameterUnit":"m.s-1","parameterCategory":1,"la1":30.2991,"la2":30.254,"lo1":-89.0895,"lo2":-89.0444,"dy":0.0017,"dx":0.0017,"nx":28,"ny":28,"refTime":"2024-08-29T21:00:00:Z","depth":0,"parameterNumber":2,"parameterNumberName":"U-component_of_WINDS"},"data":[0,0,0,0,0,0,0,0,0,0,0,0,0,0,0,0,0,0,0,0,0,0,0,0,0,0,0,0,0,0,0,0,0,0,0,0,0,0,0,0,0,0,0,0,0,0,0,0,0,0,0,0,0,0,0,0,0,0,-6.6726,-6.6726,0,-6.6745,-6.6745,-6.6745,-6.6585,-6.6581,-6.6576,-6.6572,-6.6592,-6.6596,-6.6601,0,0,0,0,0,0,0,0,0,0,0,0,0,-6.6554,-6.6558,-6.6726,-6.6726,-6.6727,-6.6745,-6.6745,-6.6745,-6.6586,-6.658,-6.6575,-6.657,-6.659,-6.6596,-6.6601,0,0,0,0,0,0,0,0,0,0,0,0,0,-6.6606,-6.6559,-6.6726,-6.6649,-6.6643,-6.6745,-6.6745,-6.6745,-6.6587,-6.658,-6.6574,-6.6567,-6.6588,-6.6595,-6.6602,-6.6779,0,0,-6.6624,-6.6627,0,0,0,0,0,0,0,0,-6.6604,-6.6613,-6.666,-6.6655,-6.6647,-6.6656,-6.6691,-6.6757,-6.6589,-6.6608,-6.6572,-6.6564,-6.6619,-6.6623,-6.6641,-6.678,-6.6781,-6.6624,-6.6629,-6.6632,-6.6634,0,0,0,0,0,0,0,-6.66,-6.6611,-6.6733,-6.6661,-6.6653,-6.6614,-6.6614,-6.6703,-6.6651,-6.6606,-6.6594,-6.6599,-6.6614,-6.6635,-6.664,-6.6781,-6.6624,-6.663,-6.6635,-6.6637,-6.7066,-6.7073,0,0,0,0,0,0,-6.6607,-6.6609,-6.6733,-6.6734,-6.6609,-6.6623,-6.6623,-6.666,-6.6649,-6.6641,-6.6604,-6.6591,-6.6626,-6.6632,-6.664,-6.6845,-6.6632,-6.6638,-6.6642,-6.7059,-6.7068,-6.7075,0,0,0,0,0,0,-6.6604,-6.6619,-6.6732,-6.6669,-6.668,-6.6633,-6.6676,-6.6664,-6.6684,-6.6648,-6.6638,-6.6635,-6.6621,-6.663,-6.6746,-6.6843,-6.6641,-6.6648,-6.705,-6.7062,-6.7071,-6.7257,0,0,0,0,0,0,-6.6599,-6.6619,-6.6685,-6.6671,-6.6684,-6.6837,-6.6682,-6.6669,-6.6697,-6.6679,-6.6674,-6.6667,-6.6616,-6.6736,-6.6753,-6.6849,-6.6653,-6.7041,-6.7055,-6.7068,-6.7242,-6.7273,-6.7299,0,0,0,0,0,-6.6594,-6.6737,-6.669,-6.6705,-6.6766,-6.6843,-6.685,-6.6789,-6.6705,-6.6771,-6.6748,-6.6667,-6.6831,-6.6749,-6.6766,-6.6867,-6.7035,-6.7051,-6.7067,-6.7229,-6.7266,-6.7298,0,0,0,0,0,0,-6.6764,-6.6734,-6.668,-6.6824,-6.6837,-6.6816,-6.6897,-6.6831,-6.6869,-6.6851,-6.6774,-6.6774,-6.6902,-6.6896,-6.6806,-6.7037,-6.6918,-6.6939,-6.7035,-6.7071,-6.7099,-6.7096,-6.6659,0,0,0,0,0,-6.6818,-6.6883,-6.6854,-6.6983,-6.6993,-6.6945,-6.6976,-6.6928,-6.6939,-6.6943,-6.6929,-6.6943,-6.6997,-6.7034,-6.7083,-6.7242,-6.7237,-6.732,-6.7348,-6.7372,-6.7389,-6.7472,-6.7507,-6.7128,-6.7128,-6.7128,0,0,-6.6931,-6.6922,-6.6968,-6.7017,-6.7022,-6.709,-6.695,-6.7029,-6.7079,-6.6955,-6.7062,-6.7053,-6.7063,-6.7201,-6.7261,-6.72,-6.7494,-6.7393,-6.7412,-6.7416,-6.7492,-6.7528,-6.756,-6.7139,-6.7137,-6.7136,0,0,-6.7169,-6.7171,-6.7278,-6.7286,-6.7295,-6.7262,-6.7289,-6.7278,-6.7266,-6.7373,-6.7281,-6.7341,-6.7437,-6.7447,-6.7465,-6.7712,-6.7638,-6.773,-6.7878,-6.796,-6.7989,-6.8015,-6.81,-6.8132,-6.7749,-6.7749,-6.7749,0,-6.7308,-6.7407,-6.7341,-6.7426,-6.745,-6.7342,-6.7449,-6.7461,-6.7486,-6.7505,-6.7437,-6.7555,-6.7555,-6.7692,-6.7753,-6.7772,-6.7799,-6.7728,-6.799,-6.8016,-6.8039,-6.8119,-6.8152,-6.776,-6.7759,-6.7758,-6.7757,0,-6.7575,-6.7646,-6.7732,-6.7758,-6.7792,-6.7888,-6.7837,-6.788,-6.783,-6.7805,-6.7915,-6.7912,-6.7957,-6.7987,-6.7939,-6.8119,-6.808,-6.8004,-6.7881,-6.8087,-6.8161,-6.8192,-6.7776,-6.7772,-6.7768,-6.7766,0,0,-6.7917,-6.7908,-6.794,-6.795,-6.7953,-6.8007,-6.8099,-6.8143,-6.818,-6.8203,-6.8276,-6.8362,-6.829,-6.8311,-6.8264,-6.8337,-6.8529,-6.825,-6.8249,-6.8299,-6.8724,-6.8779,-6.8815,-6.8482,-6.8488,-6.8492,-6.8722,0,-6.8148,-6.8302,-6.8246,-6.8404,-6.8468,-6.8369,-6.8449,-6.846,-6.844,-6.8492,-6.8471,-6.853,-6.8434,-6.8445,-6.8513,-6.8491,-6.8613,-6.8475,-6.8548,-6.8552,-6.8544,-6.8854,-6.8912,-6.9129,-6.8751,-6.8756,-6.8759,0,-6.8435,-6.8468,-6.8633,-6.8625,-6.865,-6.8723,-6.8758,-6.881,-6.8821,-6.8802,-6.8827,-6.8765,-6.8855,-6.8737,-6.8859,-6.8766,-6.8794,-6.8789,-6.8796,-6.8797,-6.8665,-6.886,-6.9197,-6.9228,-6.8805,-6.8801,-6.8798,0,-6.8664,-6.8751,-6.8859,-6.8872,-6.8867,-6.892,-6.892,-6.8925,-6.8955,-6.8988,-6.9006,-6.905,-6.9072,-6.9108,-6.9059,-6.8979,-6.9188,-6.9067,-6.9173,-6.9174,-6.9217,-6.9214,-6.9559,-6.9243,-6.9243,-6.9242,-6.9242,0,-6.8924,-6.9027,-6.8962,-6.9028,-6.9142,-6.9079,-6.9193,-6.9182,-6.9188,-6.9251,-6.917,-6.9231,-6.9165,-6.9221,-6.9184,-6.929,-6.9302,-6.9288,-6.9276,-6.9292,-6.9294,-6.9306,-6.9288,-6.9251,-6.9249,-6.9247,-6.9246,0,-6.9196,-6.9156,-6.9268,-6.9255,-6.9254,-6.9338,-6.9326,-6.9388,-6.9364,-6.9445,-6.946,-6.9422,-6.9483,-6.944,-6.9501,-6.9477,-6.9614,-6.9584,-6.961,-6.96,-6.9707,-6.9696,-7.0068,-7.0113,-6.9773,-6.9776,-6.9779,0,-6.9362,-6.9439,-6.9434,-6.9471,-6.9476,-6.9536,-6.9566,-6.9509,-6.9544,-6.9563,-6.9622,-6.9677,-6.9716,-6.9819,-6.9797,-6.9843,-6.981,-6.9938,-6.9816,-6.983,-6.9808,-6.9802,-6.9808,-6.9961,-6.9965,-6.9968,-6.9971,0,-6.966,-6.9637,-6.9683,-6.9724,-6.9762,-6.9792,-6.9815,-6.985,-6.9791,-6.9835,-6.9896,-6.9927,-6.999,-7.0044,-7.0083,-7.0083,-7.0018,-7.001,-7.0036,-7.0051,-7.0062,-7.0054,-6.9672,-7.0,-6.9997,-6.9995,-6.9994,-6.9992,-6.988,-6.9944,-6.995,-7.0005,-7.0017,-7.0041,-7.0097,-7.0081,-7.013,-7.0176,-7.014,-7.0213,-7.0223,-7.0268,-7.0278,-7.0334,-7.0282,-7.0321,-7.033,-7.0339,-7.0353,-7.0057,-7.0342,-7.0341,-7.034,-7.0339,-7.0339,0,-7.017,-7.017,-7.0222,-7.0256,-7.03,-7.0236,-7.0258,-7.0299,-7.0363,-7.0379,-7.042,-7.0491,-7.0544,-7.0528,-7.0575,-7.0623,-7.0594,-7.0637,-7.063,-7.0631,-7.0399,-7.0369,-7.066,-7.066,-7.0659,-7.0659,-7.0659,-7.0659,-7.0326,-7.0429,-7.0408,-7.0516,-7.0516,-7.0585,-7.0604,-7.0625,-7.0637,-7.0719,-7.0763,-7.0752,-7.0755,-7.0802,-7.0848,-7.0842,-7.0861,-7.0915,-7.0898,-7.068,-7.0648,-7.0617,-7.0589,-7.0921,-7.0921,-7.1125,-7.1127,-7.1128]},{"header":{"parameterUnit":"m.s-1","parameterCategory":1,"la1":30.2991,"la2":30.254,"lo1":-89.0895,"lo2":-89.0444,"dy":0.0017,"dx":0.0017,"nx":28,"ny":28,"refTime":"2024-08-29T21:00:00:Z","depth":0,"parameterNumber":3,"parameterNumberName":"V-component_of_WINDS"},"data":[0,0,0,0,0,0,0,0,0,0,0,0,0,0,0,0,0,0,0,0,0,0,0,0,0,0,0,0,0,0,0,0,0,0,0,0,0,0,0,0,0,0,0,0,0,0,0,0,0,0,0,0,0,0,0,0,0,0,0.6307,0.6307,0,0.6313,0.6313,0.6313,0.624,0.6238,0.6236,0.6234,0.6245,0.6247,0.6249,0,0,0,0,0,0,0,0,0,0,0,0,0,0.6237,0.6239,0.6307,0.6307,0.6307,0.6313,0.6313,0.6313,0.624,0.6238,0.6235,0.6233,0.6244,0.6246,0.6249,0,0,0,0,0,0,0,0,0,0,0,0,0,0.6258,0.624,0.6307,0.6272,0.6269,0.6313,0.6313,0.6313,0.6241,0.6238,0.6235,0.6232,0.6243,0.6246,0.6249,0.6329,0,0,0.6259,0.626,0,0,0,0,0,0,0,0,0.6257,0.6261,0.6277,0.6274,0.6271,0.6272,0.6292,0.6319,0.6242,0.6252,0.6234,0.6231,0.6257,0.6258,0.6266,0.633,0.633,0.6259,0.6261,0.6263,0.6264,0,0,0,0,0,0,0,0.6256,0.626,0.631,0.6277,0.6274,0.6257,0.6256,0.6297,0.6271,0.625,0.6245,0.6247,0.6254,0.6263,0.6266,0.633,0.6259,0.6262,0.6264,0.6265,0.646,0.6463,0,0,0,0,0,0,0.6258,0.6259,0.6309,0.631,0.6256,0.626,0.626,0.6275,0.627,0.6267,0.6249,0.6243,0.6259,0.6262,0.6266,0.636,0.6263,0.6266,0.6268,0.6456,0.646,0.6464,0,0,0,0,0,0,0.6257,0.6264,0.6309,0.6283,0.6287,0.6265,0.6282,0.6277,0.6286,0.6269,0.6265,0.6263,0.6257,0.6262,0.6314,0.6359,0.6267,0.627,0.6453,0.6458,0.6462,0.6549,0,0,0,0,0,0,0.6256,0.6264,0.6293,0.6284,0.6289,0.6356,0.6285,0.6279,0.6291,0.6283,0.6281,0.6278,0.6255,0.6309,0.6317,0.6362,0.6273,0.6449,0.6455,0.6461,0.6542,0.6556,0.6568,0,0,0,0,0,0.6253,0.6318,0.6295,0.6301,0.6325,0.6359,0.6362,0.6333,0.6295,0.6325,0.6314,0.6278,0.6352,0.6315,0.6323,0.637,0.6446,0.6453,0.646,0.6536,0.6553,0.6568,0,0,0,0,0,0,0.6335,0.6317,0.6291,0.6354,0.6358,0.6346,0.6384,0.6352,0.6369,0.6361,0.6326,0.6326,0.6385,0.6382,0.6341,0.6447,0.6392,0.6402,0.6447,0.6464,0.6477,0.6477,0.6275,0,0,0,0,0,0.636,0.6388,0.637,0.6428,0.6431,0.6407,0.6421,0.6398,0.6402,0.6404,0.6397,0.6403,0.6427,0.6445,0.6467,0.654,0.6539,0.6576,0.6589,0.66,0.6609,0.6649,0.6665,0.6488,0.6488,0.6488,0,0,0.6414,0.6406,0.6427,0.6445,0.6445,0.6476,0.641,0.6445,0.6467,0.6409,0.6458,0.6453,0.6458,0.6521,0.6548,0.6521,0.6658,0.6609,0.6618,0.6622,0.6658,0.6675,0.669,0.6493,0.6492,0.6491,0,0,0.6526,0.6523,0.6571,0.6572,0.6573,0.6556,0.6568,0.656,0.6554,0.6602,0.6559,0.6586,0.6629,0.6634,0.6643,0.6755,0.6723,0.6763,0.6833,0.6872,0.6886,0.6898,0.694,0.6956,0.6772,0.6772,0.6772,0,0.6593,0.6636,0.6601,0.6638,0.6648,0.6594,0.6644,0.6647,0.6656,0.6664,0.6632,0.6685,0.6684,0.6748,0.6775,0.6783,0.6797,0.6765,0.6886,0.6898,0.6909,0.6949,0.6965,0.6777,0.6776,0.6776,0.6775,0,0.6719,0.6749,0.6788,0.6796,0.681,0.6854,0.6826,0.6844,0.6819,0.6806,0.6855,0.6852,0.6872,0.6885,0.6862,0.6946,0.6929,0.6892,0.6837,0.6932,0.6969,0.6984,0.6784,0.6782,0.6781,0.678,0,0,0.6887,0.6873,0.6888,0.6891,0.6887,0.691,0.6951,0.6969,0.6986,0.6993,0.7028,0.7065,0.703,0.704,0.7016,0.705,0.7141,0.7009,0.7008,0.7036,0.7235,0.7265,0.7283,0.7118,0.7121,0.7123,0.7236,0,0.6999,0.7067,0.7035,0.7108,0.7136,0.7084,0.712,0.7122,0.711,0.7133,0.712,0.7147,0.7098,0.7104,0.7135,0.7124,0.7181,0.7115,0.7153,0.7154,0.7156,0.7302,0.7334,0.7441,0.725,0.7252,0.7254,0,0.7139,0.715,0.7225,0.7215,0.7226,0.7259,0.7272,0.7294,0.7295,0.7284,0.7294,0.7262,0.7303,0.7245,0.7301,0.7257,0.727,0.7267,0.727,0.7275,0.7212,0.7314,0.7474,0.7491,0.7276,0.7274,0.7272,0,0.7257,0.7291,0.734,0.7344,0.7333,0.7357,0.7354,0.7352,0.7364,0.7376,0.7384,0.7402,0.7412,0.7426,0.7401,0.7361,0.7461,0.7401,0.7455,0.7456,0.7482,0.7481,0.7649,0.7485,0.7485,0.7485,0.7485,0,0.7387,0.7436,0.7393,0.7424,0.7477,0.7439,0.7493,0.7484,0.7482,0.7511,0.7466,0.7495,0.7457,0.7483,0.7462,0.7513,0.7517,0.7511,0.7506,0.7517,0.7518,0.7528,0.7521,0.7489,0.7488,0.7487,0.7487,0,0.753,0.7503,0.7553,0.7538,0.7535,0.7575,0.7562,0.759,0.7574,0.7611,0.7618,0.7593,0.762,0.7594,0.762,0.7607,0.7675,0.7658,0.7675,0.7671,0.7727,0.7724,0.791,0.7933,0.7752,0.7754,0.7755,0,0.7616,0.7652,0.764,0.7655,0.7654,0.7679,0.7691,0.7655,0.767,0.7672,0.7701,0.7723,0.774,0.7786,0.7771,0.7791,0.7775,0.7839,0.7778,0.7788,0.7779,0.7779,0.7783,0.7853,0.7855,0.7857,0.7858,0,0.7773,0.7757,0.7776,0.7789,0.7804,0.7814,0.782,0.7835,0.7797,0.7816,0.7842,0.7855,0.788,0.7904,0.7919,0.7916,0.7883,0.7876,0.7891,0.7904,0.7914,0.7912,0.7712,0.7874,0.7872,0.7871,0.787,0.7869,0.7893,0.7922,0.7918,0.794,0.7939,0.7945,0.7971,0.7957,0.7977,0.7994,0.7971,0.8004,0.8003,0.8019,0.802,0.8046,0.802,0.804,0.8045,0.8052,0.8061,0.7906,0.8048,0.8048,0.8048,0.8047,0.8047,0,0.805,0.8043,0.8063,0.8072,0.8089,0.8051,0.8056,0.8073,0.8102,0.8103,0.8119,0.815,0.8172,0.8157,0.8177,0.82,0.8185,0.8207,0.8207,0.8207,0.8082,0.8069,0.8219,0.8219,0.8219,0.8219,0.8219,0.8219,0.8134,0.8182,0.8166,0.8213,0.8207,0.8237,0.8243,0.8249,0.8249,0.8284,0.8302,0.8291,0.8286,0.8304,0.8323,0.8318,0.8329,0.8357,0.8348,0.8232,0.8216,0.82,0.8187,0.8359,0.8359,0.847,0.8471,0.8472]}]]